Regional Weather Roundup
Issued by NWS

Home | Current Version | Previous Version | Text Only | Print | Product List | Glossary Off
Versions: 1 2 3 4 5 6 7 8 9 10 11 12 13 14 15 16 17 18 19 20 21 22 23 24 25 26 27 28 29 30 31 32 33 34 35 36 37 38 39 40 41 42 43 44 45 46 47 48 49 50

000
ASUS43 KMPX 052301
RWRMN
WEATHER ROUNDUP FOR MINNESOTA
NATIONAL WEATHER SERVICE TWIN CITIES/CHANHASSEN MN
600 PM CDT TUE MAY 05 2015


NOTE: "FAIR" INDICATES FEW OR NO CLOUDS BELOW 12,000 FEET WITH NO
SIGNIFICANT WEATHER AND/OR OBSTRUCTIONS TO VISIBILITY. N/A MEANS
CURRENT SKY AND/OR WEATHER CONDITIONS ARE NOT AVAILABLE.

MNZ060>063-068>070-060000-
   Twin Cities Metro

CITY           SKY/WX    TMP DP  RH WIND       PRES   REMARKS
TWIN CITIES    CLOUDY    66  49  54 E17       30.12F
ST PAUL        PTSUNNY   66  50  56 SE16      30.14S
CRYSTAL        PTSUNNY   68  49  50 SE15      30.11F
BLAINE         PTSUNNY   70  46  43 SE14G20   30.12
LAKEVILLE      CLOUDY    61  52  72 SE15      30.12S
EDEN PRAIRIE   CLOUDY    65  51  60 SE18      30.10F
SOUTH ST PAUL  PTSUNNY   66  48  52 SE8       30.13S
LAKE ELMO      FAIR      66  45  45 E13       30.14F
$$
MNZ001>005-007-008-013>017-022>024-027-028-060000-
   Northwest Minnesota

CITY           SKY/WX    TMP DP  RH WIND       PRES   REMARKS
BEMIDJI        SUNNY     73  33  23 SE12G20   30.05F
HALLOCK        MOSUNNY   77 -11   3 S13       29.97F
ROSEAU         SUNNY     75  12   9 S10       30.03F
WARROAD        SUNNY     73  30  20 SE13G18   30.05S
THIEF RVR FALL SUNNY     75  19  12 S17G25    30.01S
CROOKSTON      MOSUNNY   75  25  15 S18       30.00S
FOSSTON        SUNNY     77  23  13 S16G23    30.03S
DETROIT LAKES  SUNNY     72  41  33 S14G24    30.04S
MOORHEAD       MOSUNNY   77  45  31 S24       29.98F
PARK RAPIDS    SUNNY     75  38  26 S17       30.05F
MAHNOMEN       FAIR      76  31  18 S13G22    30.02F
$$
MNZ006-009>011-018-025>026-060000-
   North Central Minnesota

CITY           SKY/WX    TMP DP  RH WIND       PRES   REMARKS
BAUDETTE       SUNNY     74  24  15 S14       30.06F
FLAG ISLAND    SUNNY     66  34  30 S3        30.05F
INTL FALLS     MOSUNNY   73  21  14 S9        30.07F
WASKISH        SUNNY     73  28  19 S9        30.06F
BIG FORK       MOSUNNY   73  28  19 S10       30.09S
LONGVILLE      SUNNY     73  36  25 SE12      30.08F
GRAND RAPIDS   MOSUNNY   72  30  21 SE12G22   30.10F
CRANE LAKE     SUNNY     70  12  11 S8        30.13S
ORR            SUNNY     73  16  11 SE6G16    30.09S
COOK           SUNNY     72  28  20 SE8       30.12S
WALKER         FAIR      72  35  25 SE8G16    30.07F
$$
MNZ012-019>021-037-060000-
   Northeast Minnesota

CITY           SKY/WX    TMP DP  RH WIND       PRES   REMARKS
DULUTH         SUNNY     67  29  24 SE13      30.14F
ELY            SUNNY     70  21  16 SW7       30.14S
HIBBING        MOSUNNY   71  29  21 SE10      30.11S
EVELETH        SUNNY     72  30  21 S12G20    30.13F
DULUTH HARBOR    N/A     48  37  66 E7        30.17S
TWO HARBORS    SUNNY     68  37  32 E14       30.14S
SILVER BAY     SUNNY     64  27  24 NE12G17   30.16S
GRAND MARAIS     N/A     51  28  41 E9        30.19F
G MARAIS ARPRT SUNNY     63  19  19 SE6       30.22S
$$
MNZ029>031-032-039>041-046>048-054>057-064-060000-
   West Central Minnesota

CITY           SKY/WX    TMP DP  RH WIND       PRES   REMARKS
FERGUS FALLS   PTSUNNY   73  46  38 S21       30.01S
WHEATON        PTSUNNY   70  54  56 SE21      30.01S
MORRIS         MOSUNNY   72  54  53 SE24      30.01F
ALEXANDRIA     PTSUNNY   67  51  56 SE23G29   30.07S
ELBOW LAKE     CLOUDY    69  53  54 SE22G31   30.02S
WADENA         MOSUNNY   72  45  37 SE20      30.04F
GLENWOOD       MOSUNNY   68  54  60 SE22      30.07F
APPLETON       PTSUNNY   70  54  56 SE16G23   30.02F
BENSON         PTSUNNY   66  52  59 S18       30.04F
ORTONVILLE     CLOUDY    68  54  60 SE18G24   30.01S
MADISON        CLOUDY    68  54  60 S22       30.02F
WILLMAR        FAIR      66  54  63 SE21G26   30.07F
$$
MNZ033>034-036-042>043-049>051-058-059-060000-
   Central Minnesota

CITY           SKY/WX    TMP DP  RH WIND       PRES   REMARKS
ST CLOUD       CLOUDY    68  46  45 SE16G24   30.09F
SAUK CENTRE    CLOUDY    67  52  57 SE13      30.07F
PAYNESVILLE    CLOUDY    63  51  64 E10       30.09S
AITKIN         SUNNY     73  28  19 S13G18    30.08S
PINE RIVER     SUNNY     73  43  33 S12G22    30.10S
BRAINERD       MOSUNNY   72  38  29 SE17G25   30.08F
STAPLES        PTSUNNY   72  39  30 S15G23    30.06S
LONG PRAIRIE   CLOUDY    66  45  45 SE18G24   30.07F
LITTLE FALLS   PTSUNNY   70  39  32 SE15G21   30.08F
LITCHFIELD     CLOUDY    64  52  63 SE18      30.10F
BUFFALO        CLOUDY    65  48  54 SE13      30.12S
MAPLE LAKE     CLOUDY    66  52  59 SE9G18    30.11F
$$
MNZ037-044-045-052-053-060000-
   East Central Minnesota

CITY           SKY/WX    TMP DP  RH WIND       PRES   REMARKS
PRINCETON      PTSUNNY   72  41  33 SE15      30.10F
MORA           SUNNY     70  39  32 S10       30.13F
CAMBRIDGE      MOSUNNY   72  46  40 SE10G18   30.10F
RUSH CITY      PTSUNNY   69  38  31 SE12G18   30.12F
MOOSE LAKE     SUNNY     73  34  23 S12G17    30.10F
HINCKLEY       FAIR      72  37  28 S14G20    30.11F
CLOQUET        SUNNY     64  25  22 E14       30.14S
MCGREGOR       SUNNY     73  34  23 S10G18    30.10S
$$
MNZ071>073-080-081-089-090-097-098-060000-
   Southwest Minnesota

CITY           SKY/WX    TMP DP  RH WIND       PRES   REMARKS
MONTEVIDEO     CLOUDY    66  54  63 S17       30.05S
GRANITE FALLS  CLOUDY    62  54  74 E18G24    30.06F
CANBY          CLOUDY    65  55  69 SE17      30.04S
MARSHALL       CLOUDY    61  52  72 SE16      30.05S
REDWOOD FALLS  CLOUDY    60  53  77 SE14G24   30.07F
OLIVIA         PTSUNNY   59  50  72 SE17G24   30.07S
WINDOM         CLOUDY    57  55  94 E12       30.07F
WORTHINGTON    CLOUDY    61  54  77 SE15      30.05F
JACKSON        CLOUDY    59  55  88 E15       30.08S
TRACY          CLOUDY    62  56  81 SE13G18   30.05F
SLAYTON        CLOUDY    60  57  89 SE16      30.05F
$$
MNZ065>067-074>077-082>085-091>093-060000-
   South Central Minnesota

CITY           SKY/WX    TMP DP  RH WIND       PRES   REMARKS
MANKATO        CLOUDY    55  54  94 SE17      30.11F
NEW ULM        CLOUDY    57  54  88 SE15      30.09F
ST JAMES       CLOUDY    57  54  88 E15       30.09F
FAIRMONT       CLOUDY    57  52  82 SE15      30.08S
GLENCOE        CLOUDY    64  55  72 SE14      30.10S
FARIBAULT      RAIN      57  54  88 SE13      30.13F
OWATONNA       CLOUDY    55  52  88 E14G20    30.13F
WASECA         CLOUDY    54  52  94 E15G21    30.13F
ALBERT LEA     DRIZZLE   54  54 100 E12       30.12F
$$
MNZ078>079-086>088-094>096-060000-
   Southeast Minnesota

CITY           SKY/WX    TMP DP  RH WIND       PRES   REMARKS
ROCHESTER      LGT RAIN  53  51  93 E14       30.17S FOG
RED WING       CLOUDY    63  48  59 SE13      30.14S
STANTON        LGT RAIN  60  53  80 SE8G16    30.13S
DODGE CENTER   LGT RAIN  54  52  94 SE16      30.15S
WINONA         DRIZZLE   55  52  88 SE12      30.18S
AUSTIN         CLOUDY    54  52  94 E12       30.14S
PRESTON        CLOUDY    51  50  95 E10       30.16F FOG
$$
ABBREVIATIONS USED IN REMARKS
   TC - TEMPERATURES IN CELSIUS
  WCI - WIND CHILL INDEX
   HX - HEAT INDEX
  VSB - VISIBILITY
$$


USA.gov is the U.S. government's official web portal to all federal, state and local government web resources and services.